Hovedside
METAR-TAF:

METAR-TAF

Lufthavner :

Pärnu lufthavn

Pärnu, Estland

breddegrad: 58-25-09N, lengdegrad: 024-28-22E, høyde over havet: 14 m

Gjeldene værobservasjon

Denne rapporten ble laget for 21 minutter siden, klokken 09:50 UTC
Vind 6 kt fra Nordøst, skiftende mellom Nord og Øst
Temperatur 27°C
Luftfuktighet 54%
Trykk 1007 hPa
Sikt 10 km eller mer
ingen skyer under 1500 m og ingen bygeskyer

METAR: EEPU 200950Z 04006KT 350V090 CAVOK 27/17 Q1007

Tid: 13:11 (10:11 UTC)


TAF: fraværende

Værobservasjoner og værvarsel for over 4000 flyplasser (METAR- og TAF-rapporter).

Tilgjengelige stasjoner er representert av de røde og gule prikkene på kartet.

Hold musepekeren over prikken for å se navnet på stasjonen.

Klikk så for å se værobservasjoner og -varsler.

For å forandre kartet kan du klikke på den grønne knappen med svart kryss for å zoome inn, på den grønne knappen med strek for å zoome ut, eller på de grønne pilene for å se tilstøtende kart.


METAR-TAF: